This is the latest recevied weather packets stored in our database for station/object K8JMX-13. If no packets are shown the sender has not sent any weather packets the latest 1 day(s).
| Time | Temp. | Humidity | Pressure | Rain* | Wind** | Luminosity | Snow |
|---|---|---|---|---|---|---|---|
| 1836274679 | 23.33° C | 62% | 1018.2 hPa | 0 mm | 0.45 m/s, 23° | 0 W/m² | - |
| 1836274532 | 22.78° C | 63% | 1018.2 hPa | 0 mm | 0 m/s | 0 W/m² | - |
| 1836274377 | 23.33° C | 62% | 1018.2 hPa | 0 mm | 0.45 m/s, 17° | 0 W/m² | - |
| 1836274231 | 22.78° C | 62% | 1018.3 hPa | 0 mm | 0.45 m/s, 20° | 0 W/m² | - |
| 1836274075 | 23.33° C | 61% | 1018.2 hPa | 0 mm | 0 m/s | 0 W/m² | - |
| 1778045846 | 9.44° C | 91% | 1005.8 hPa | 1.27 mm | 1.79 m/s, 0° | 0 W/m² | - |
| 1778045545 | 9.44° C | 91% | 1006 hPa | 1.78 mm | 0.45 m/s, 24° | 0 W/m² | - |
| 1778045242 | 10° C | 91% | 1006 hPa | 1.78 mm | 1.79 m/s, 46° | 0 W/m² | - |
| 1778044942 | 10° C | 91% | 1006.2 hPa | 1.27 mm | 0.89 m/s, 68° | 0 W/m² | - |
| 1778044638 | 10° C | 91% | 1006.1 hPa | 3.05 mm | 1.34 m/s, 35° | 0 W/m² | - |
| 1778044334 | 10° C | 91% | 1006.1 hPa | 1.78 mm | 1.79 m/s, 54° | 0 W/m² | - |
| 1778044032 | 10° C | 91% | 1006.1 hPa | 0 mm | 0.89 m/s, 23° | 0 W/m² | - |
| 1778043729 | 10° C | 91% | 1006.3 hPa | 0 mm | 0 m/s | 0 W/m² | - |
| 1778043426 | 10° C | 91% | 1006.2 hPa | 0 mm | 1.79 m/s, 1° | 0 W/m² | - |
| 1778043122 | 10° C | 91% | 1006.2 hPa | 0 mm | 0 m/s | 0 W/m² | - |
| 1778042820 | 10° C | 91% | 1006.2 hPa | 0 mm | 0 m/s | 0 W/m² | - |
| 1778042517 | 10° C | 91% | 1006.3 hPa | 0 mm | 0.89 m/s, 63° | 0 W/m² | - |
| 1778042214 | 10° C | 91% | 1006.1 hPa | 0 mm | 1.79 m/s, 45° | 0 W/m² | - |
| 1778041912 | 10° C | 91% | 1006.1 hPa | 0 mm | 1.79 m/s, 46° | 0 W/m² | - |
| 1778041611 | 10° C | 91% | 1006.4 hPa | 0 mm | 0.89 m/s, 12° | 0 W/m² | - |
| 1778041309 | 10° C | 91% | 1006.3 hPa | 0 mm | 0.89 m/s, 65° | 0 W/m² | - |
| 1778041007 | 10° C | 91% | 1006.3 hPa | 0 mm | 0 m/s | 0 W/m² | - |
| 1778040703 | 10° C | 91% | 1006.1 hPa | 0 mm | 0 m/s | 0 W/m² | - |
| 1778040401 | 10° C | 91% | 1006.4 hPa | 0 mm | 1.34 m/s, 58° | 0 W/m² | - |
| 1778040098 | 10° C | 91% | 1006.3 hPa | 0 mm | 1.79 m/s, 49° | 0 W/m² | - |
* Rain latest hour (hover to see other rain measurements)
** Current wind speed in m/s (hover to see current wind gust speed)